Location: ??????????
(48.4699°N, 37.9573°E)
Time: 13:24:11
(UTC+00:00)

RESURS DK-1 - Pass Details

Date: 20 January 2021
Orbit: 557 x 560 km, 69.9° (Epoch: 26 February)

Event Time Altitude Azimuth Distance (km) Brightness Sun altitude
Rises 15:25:19 0° 232° (SW) 2,735 7.3 -12.6°
Reaches altitude 10° 15:27:40 10° 242° (WSW) 1,843 6.4 -12.9°
Maximum altitude 15:31:27 34° 308° (NW) 932 3.8 -13.6°
Drops below altitude 10° 15:35:15 10° 15° (NNE) 1,854 4.7 -14.2°
Enters shadow 15:35:54 - 18° (NNE) 2,097 5.0 -14.3°
